contact: severine.martini@mio.osupytheas.fr, dominique.lefevre@mio.osupytheas.fr
Project:EMSO Ligure-ouest http://www.emso-fr.org/EMSO-France
Sensor Microcat Sea-Bird SBE37 SMP,  Serial 57510 
DOI : "https://doi.org/10.17882/97948" 
Title:EMSO Ligure Ouest : Data Bathybot capteur Microcat - deploiement 2023-04-28
Datetime,Profondeur,Latitude,Longitude,Temperature,Conductivite,Pression,Salinite
time,m,degree_north,degree_east,degree_C,S/m,db,PSU 
2023-12-16T00:00:49,2420,42.8014,5.9826,13.3010,4.59942,2453.635,38.4870
2023-12-16T00:03:49,2420,42.8014,5.9826,13.2988,4.59934,2453.649,38.4884
2023-12-16T00:06:49,2420,42.8014,5.9826,13.3008,4.59945,2453.627,38.4875
2023-12-16T00:09:49,2420,42.8014,5.9826,13.3014,4.59946,2453.649,38.4870
2023-12-16T00:12:49,2420,42.8014,5.9826,13.3008,4.59930,2453.627,38.4861
2023-12-16T00:15:49,2420,42.8014,5.9826,13.3004,4.59939,2453.627,38.4873
2023-12-16T00:18:49,2420,42.8014,5.9826,13.2993,4.59915,2453.641,38.4862
2023-12-16T00:21:49,2420,42.8014,5.9826,13.2988,4.59950,2453.627,38.4900
2023-12-16T00:24:49,2420,42.8014,5.9826,13.3001,4.59921,2453.590,38.4859
2023-12-16T00:27:49,2420,42.8014,5.9826,13.3011,4.59934,2453.590,38.4862
2023-12-16T00:30:49,2420,42.8014,5.9826,13.2985,4.59913,2453.627,38.4868
2023-12-16T00:33:49,2420,42.8014,5.9826,13.3011,4.59926,2453.604,38.4854
2023-12-16T00:36:49,2420,42.8014,5.9826,13.2985,4.59923,2453.627,38.4877
2023-12-16T00:39:49,2420,42.8014,5.9826,13.3001,4.59925,2453.590,38.4862
2023-12-16T00:42:49,2420,42.8014,5.9826,13.3004,4.59928,2453.604,38.4863
2023-12-16T00:45:49,2420,42.8014,5.9826,13.3003,4.59915,2453.641,38.4851
2023-12-16T00:48:49,2420,42.8014,5.9826,13.2994,4.59921,2453.627,38.4866
2023-12-16T00:51:49,2420,42.8014,5.9826,13.2993,4.59943,2453.604,38.4888
2023-12-16T00:54:49,2420,42.8014,5.9826,13.3026,4.59937,2453.590,38.4850
2023-12-16T00:57:49,2420,42.8014,5.9826,13.3016,4.59938,2453.627,38.4860
2023-12-16T01:00:50,2420,42.8014,5.9826,13.3010,4.59920,2453.604,38.4849
2023-12-16T01:03:49,2420,42.8014,5.9826,13.2999,4.59935,2453.604,38.4875
2023-12-16T01:06:49,2420,42.8014,5.9826,13.3006,4.59939,2453.604,38.4871
2023-12-16T01:09:49,2420,42.8014,5.9826,13.3004,4.59927,2453.627,38.4862
2023-12-16T01:12:49,2420,42.8014,5.9826,13.3007,4.59935,2453.582,38.4867
2023-12-16T01:15:49,2420,42.8014,5.9826,13.3022,4.59937,2453.604,38.4854
2023-12-16T01:18:49,2420,42.8014,5.9826,13.3010,4.59937,2453.627,38.4865
2023-12-16T01:21:49,2420,42.8014,5.9826,13.3016,4.59937,2453.627,38.4860
2023-12-16T01:24:49,2420,42.8014,5.9826,13.3000,4.59931,2453.619,38.4870
2023-12-16T01:27:49,2420,42.8014,5.9826,13.2998,4.59934,2453.604,38.4875
2023-12-16T01:30:49,2420,42.8014,5.9826,13.3003,4.59934,2453.604,38.4870
2023-12-16T01:33:49,2420,42.8014,5.9826,13.3003,4.59927,2453.604,38.4863
2023-12-16T01:36:49,2420,42.8014,5.9826,13.2992,4.59944,2453.582,38.4890
2023-12-16T01:39:49,2420,42.8014,5.9826,13.3015,4.59934,2453.567,38.4858
2023-12-16T01:42:49,2420,42.8014,5.9826,13.2995,4.59955,2453.582,38.4897
2023-12-16T01:45:49,2420,42.8014,5.9826,13.2996,4.59940,2453.627,38.4882
2023-12-16T01:48:49,2420,42.8014,5.9826,13.2983,4.59923,2453.604,38.4879
2023-12-16T01:51:49,2420,42.8014,5.9826,13.2986,4.59922,2453.604,38.4875
2023-12-16T01:54:49,2420,42.8014,5.9826,13.3013,4.59922,2453.604,38.4848
2023-12-16T01:57:49,2420,42.8014,5.9826,13.2986,4.59932,2453.582,38.4884
2023-12-16T02:00:49,2420,42.8014,5.9826,13.3009,4.59948,2453.596,38.4877
2023-12-16T02:03:49,2420,42.8014,5.9826,13.3019,4.59940,2453.582,38.4859
2023-12-16T02:06:49,2420,42.8014,5.9826,13.3023,4.59962,2453.596,38.4876
2023-12-16T02:09:49,2420,42.8014,5.9826,13.2996,4.59948,2453.582,38.4889
2023-12-16T02:12:49,2420,42.8014,5.9826,13.3014,4.59931,2453.582,38.4856
2023-12-16T02:15:49,2420,42.8014,5.9826,13.3002,4.59919,2453.604,38.4856
2023-12-16T02:18:49,2420,42.8014,5.9826,13.2991,4.59922,2453.582,38.4870
2023-12-16T02:21:49,2420,42.8014,5.9826,13.3000,4.59940,2453.559,38.4878
2023-12-16T02:24:49,2420,42.8014,5.9826,13.2988,4.59929,2453.604,38.4880
2023-12-16T02:27:49,2420,42.8014,5.9826,13.2998,4.59927,2453.604,38.4868
2023-12-16T02:30:49,2420,42.8014,5.9826,13.3029,4.59949,2453.582,38.4858
2023-12-16T02:33:49,2420,42.8014,5.9826,13.2998,4.59950,2453.582,38.4889
2023-12-16T02:36:49,2420,42.8014,5.9826,13.3013,4.59930,2453.590,38.4856
2023-12-16T02:39:49,2420,42.8014,5.9826,13.3011,4.59940,2453.582,38.4868
2023-12-16T02:42:49,2420,42.8014,5.9826,13.3012,4.59923,2453.567,38.4850
2023-12-16T02:45:49,2420,42.8014,5.9826,13.2993,4.59926,2453.582,38.4872
2023-12-16T02:48:49,2420,42.8014,5.9826,13.2985,4.59925,2453.559,38.4879
2023-12-16T02:51:49,2420,42.8014,5.9826,13.2986,4.59922,2453.582,38.4875
2023-12-16T02:54:49,2420,42.8014,5.9826,13.3012,4.59926,2453.590,38.4852
2023-12-16T02:57:49,2420,42.8014,5.9826,13.3006,4.59926,2453.604,38.4859
2023-12-16T03:00:49,2420,42.8014,5.9826,13.3016,4.59953,2453.582,38.4875
2023-12-16T03:03:49,2420,42.8014,5.9826,13.3010,4.59931,2453.582,38.4861
2023-12-16T03:06:49,2420,42.8014,5.9826,13.3011,4.59935,2453.590,38.4862
2023-12-16T03:09:49,2420,42.8014,5.9826,13.3034,4.59947,2453.559,38.4851
2023-12-16T03:12:49,2420,42.8014,5.9826,13.3014,4.59947,2453.559,38.4871
2023-12-16T03:15:49,2420,42.8014,5.9826,13.3003,4.59916,2453.537,38.4853
2023-12-16T03:18:49,2420,42.8014,5.9826,13.2998,4.59928,2453.619,38.4869
2023-12-16T03:21:49,2420,42.8014,5.9826,13.2998,4.59941,2453.582,38.4881
2023-12-16T03:24:49,2420,42.8014,5.9826,13.3025,4.59955,2453.582,38.4868
2023-12-16T03:27:49,2420,42.8014,5.9826,13.2991,4.59930,2453.604,38.4878
2023-12-16T03:30:49,2420,42.8014,5.9826,13.2996,4.59931,2453.604,38.4874
2023-12-16T03:33:49,2420,42.8014,5.9826,13.3001,4.59956,2453.559,38.4892
2023-12-16T03:36:49,2420,42.8014,5.9826,13.2996,4.59928,2453.604,38.4870
2023-12-16T03:39:49,2420,42.8014,5.9826,13.3013,4.59938,2453.559,38.4863
2023-12-16T03:42:49,2420,42.8014,5.9826,13.3004,4.59936,2453.604,38.4870
2023-12-16T03:45:49,2420,42.8014,5.9826,13.3033,4.59939,2453.582,38.4844
2023-12-16T03:48:49,2420,42.8014,5.9826,13.2989,4.59917,2453.619,38.4868
2023-12-16T03:51:49,2420,42.8014,5.9826,13.2983,4.59936,2453.596,38.4891
2023-12-16T03:54:49,2420,42.8014,5.9826,13.3013,4.59944,2453.559,38.4869
2023-12-16T03:57:49,2420,42.8014,5.9826,13.3016,4.59955,2453.604,38.4876
2023-12-16T04:00:49,2420,42.8014,5.9826,13.3008,4.59979,2453.604,38.4907
2023-12-16T04:03:49,2420,42.8014,5.9826,13.3012,4.59985,2453.590,38.4908
2023-12-16T04:06:49,2420,42.8014,5.9826,13.3015,4.60031,2453.604,38.4949
2023-12-16T04:09:49,2420,42.8014,5.9826,13.3023,4.59974,2453.590,38.4887
2023-12-16T04:12:49,2420,42.8014,5.9826,13.3006,4.59951,2453.582,38.4883
2023-12-16T04:15:49,2420,42.8014,5.9826,13.3009,4.59942,2453.604,38.4871
2023-12-16T04:18:49,2420,42.8014,5.9826,13.3004,4.59940,2453.582,38.4875
2023-12-16T04:21:49,2420,42.8014,5.9826,13.3017,4.59953,2453.619,38.4873
2023-12-16T04:24:49,2420,42.8014,5.9826,13.3000,4.59943,2453.604,38.4881
2023-12-16T04:27:49,2420,42.8014,5.9826,13.3023,4.59940,2453.596,38.4856
2023-12-16T04:30:49,2420,42.8014,5.9826,13.3016,4.59946,2453.582,38.4869
2023-12-16T04:33:49,2420,42.8014,5.9826,13.3011,4.59959,2453.619,38.4886
2023-12-16T04:36:49,2420,42.8014,5.9826,13.3029,4.59976,2453.604,38.4883
2023-12-16T04:39:49,2420,42.8014,5.9826,13.3033,4.59931,2453.596,38.4837
2023-12-16T04:42:49,2420,42.8014,5.9826,13.3048,4.59975,2453.582,38.4864
2023-12-16T04:45:49,2420,42.8014,5.9826,13.3011,4.59947,2453.567,38.4875
2023-12-16T04:48:49,2420,42.8014,5.9826,13.3005,4.59949,2453.567,38.4882
2023-12-16T04:51:49,2420,42.8014,5.9826,13.3011,4.59948,2453.604,38.4875
2023-12-16T04:54:49,2420,42.8014,5.9826,13.3020,4.59936,2453.604,38.4855
2023-12-16T04:57:49,2420,42.8014,5.9826,13.3001,4.59928,2453.604,38.4865
2023-12-16T05:00:49,2420,42.8014,5.9826,13.3027,4.59977,2453.582,38.4886
2023-12-16T05:03:49,2420,42.8014,5.9826,13.2995,4.59964,2453.604,38.4906
2023-12-16T05:06:49,2420,42.8014,5.9826,13.3027,4.59957,2453.627,38.4867
2023-12-16T05:09:49,2420,42.8014,5.9826,13.3022,4.59954,2453.627,38.4869
2023-12-16T05:12:49,2420,42.8014,5.9826,13.3023,4.59920,2453.627,38.4836
2023-12-16T05:15:49,2420,42.8014,5.9826,13.3001,4.59946,2453.641,38.4883
2023-12-16T05:18:49,2420,42.8014,5.9826,13.3025,4.59927,2453.627,38.4841
2023-12-16T05:21:49,2420,42.8014,5.9826,13.3023,4.59969,2453.627,38.4883
2023-12-16T05:24:49,2420,42.8014,5.9826,13.3007,4.59963,2453.627,38.4893
2023-12-16T05:27:49,2420,42.8014,5.9826,13.3047,4.59959,2453.664,38.4849
2023-12-16T05:30:49,2420,42.8014,5.9826,13.3026,4.59971,2453.649,38.4882
2023-12-16T05:33:49,2420,42.8014,5.9826,13.3011,4.59963,2453.627,38.4890
2023-12-16T05:36:49,2420,42.8014,5.9826,13.3055,4.59999,2453.649,38.4879
2023-12-16T05:39:49,2420,42.8014,5.9826,13.3029,4.59982,2453.649,38.4888
2023-12-16T05:42:49,2420,42.8014,5.9826,13.3029,4.59943,2453.649,38.4852
2023-12-16T05:45:49,2420,42.8014,5.9826,13.3013,4.59937,2453.627,38.4862
2023-12-16T05:48:49,2420,42.8014,5.9826,13.2998,4.59959,2453.649,38.4899
2023-12-16T05:51:49,2420,42.8014,5.9826,13.2996,4.59988,2453.657,38.4927
2023-12-16T05:54:49,2420,42.8014,5.9826,13.3023,4.59939,2453.672,38.4854
2023-12-16T05:57:49,2420,42.8014,5.9826,13.3023,4.59971,2453.672,38.4884
2023-12-16T06:00:49,2420,42.8014,5.9826,13.3038,4.60003,2453.672,38.4900
2023-12-16T06:03:49,2420,42.8014,5.9826,13.3026,4.59936,2453.687,38.4849
2023-12-16T06:06:49,2420,42.8014,5.9826,13.3031,4.59994,2453.627,38.4898
2023-12-16T06:09:49,2420,42.8014,5.9826,13.3035,4.59949,2453.709,38.4851
2023-12-16T06:12:49,2420,42.8014,5.9826,13.3046,4.59970,2453.672,38.4860
2023-12-16T06:15:49,2420,42.8014,5.9826,13.3033,4.59953,2453.672,38.4858
2023-12-16T06:18:49,2420,42.8014,5.9826,13.2989,4.59908,2453.695,38.4858
2023-12-16T06:21:49,2420,42.8014,5.9826,13.2996,4.59930,2453.717,38.4873
2023-12-16T06:24:49,2420,42.8014,5.9826,13.3007,4.59931,2453.695,38.4862
2023-12-16T06:27:50,2420,42.8014,5.9826,13.3029,4.60028,2453.717,38.4932
2023-12-16T06:30:49,2420,42.8014,5.9826,13.3021,4.59947,2453.717,38.4864
2023-12-16T06:33:49,2420,42.8014,5.9826,13.2996,4.59930,2453.695,38.4872
2023-12-16T06:36:49,2420,42.8014,5.9826,13.2996,4.59910,2453.717,38.4854
2023-12-16T06:39:49,2420,42.8014,5.9826,13.2988,4.59910,2453.717,38.4861
2023-12-16T06:42:49,2420,42.8014,5.9826,13.2991,4.59917,2453.740,38.4864
2023-12-16T06:45:49,2420,42.8014,5.9826,13.2993,4.59908,2453.740,38.4855
2023-12-16T06:48:49,2420,42.8014,5.9826,13.2996,4.59909,2453.717,38.4853
2023-12-16T06:51:49,2420,42.8014,5.9826,13.2992,4.59908,2453.740,38.4855
2023-12-16T06:54:49,2420,42.8014,5.9826,13.3008,4.59917,2453.762,38.4848
2023-12-16T06:57:49,2420,42.8014,5.9826,13.2996,4.59915,2453.740,38.4858
2023-12-16T07:00:49,2420,42.8014,5.9826,13.2998,4.59917,2453.740,38.4859
2023-12-16T07:03:49,2420,42.8014,5.9826,13.2991,4.59913,2453.762,38.4861
2023-12-16T07:06:49,2420,42.8014,5.9826,13.3000,4.59918,2453.770,38.4857
2023-12-16T07:09:49,2420,42.8014,5.9826,13.2998,4.59911,2453.762,38.4852
2023-12-16T07:12:49,2420,42.8014,5.9826,13.3002,4.59920,2453.762,38.4856
2023-12-16T07:15:49,2420,42.8014,5.9826,13.2996,4.59909,2453.785,38.4853
2023-12-16T07:18:49,2420,42.8014,5.9826,13.2998,4.59910,2453.762,38.4851
2023-12-16T07:21:49,2420,42.8014,5.9826,13.2995,4.59920,2453.785,38.4864
2023-12-16T07:24:49,2420,42.8014,5.9826,13.2991,4.59911,2453.785,38.4859
2023-12-16T07:27:49,2420,42.8014,5.9826,13.3013,4.59921,2453.762,38.4846
2023-12-16T07:30:49,2420,42.8014,5.9826,13.2998,4.59908,2453.754,38.4849
2023-12-16T07:33:49,2420,42.8014,5.9826,13.2992,4.59910,2453.785,38.4857
2023-12-16T07:36:49,2420,42.8014,5.9826,13.2996,4.59923,2453.807,38.4865
2023-12-16T07:39:49,2420,42.8014,5.9826,13.2998,4.59919,2453.785,38.4860
2023-12-16T07:42:49,2420,42.8014,5.9826,13.3009,4.59915,2453.777,38.4846
2023-12-16T07:45:49,2420,42.8014,5.9826,13.2995,4.59916,2453.785,38.4860
2023-12-16T07:48:49,2420,42.8014,5.9826,13.2990,4.59911,2453.785,38.4860
2023-12-16T07:51:49,2420,42.8014,5.9826,13.2988,4.59934,2453.785,38.4884
2023-12-16T07:54:49,2420,42.8014,5.9826,13.3007,4.59915,2453.807,38.4846
2023-12-16T07:57:49,2420,42.8014,5.9826,13.3002,4.59938,2453.853,38.4874
2023-12-16T08:00:49,2420,42.8014,5.9826,13.3000,4.59928,2453.830,38.4866
2023-12-16T08:03:49,2420,42.8014,5.9826,13.3008,4.59929,2453.830,38.4859
2023-12-16T08:06:49,2420,42.8014,5.9826,13.3005,4.59910,2453.830,38.4844
2023-12-16T08:09:49,2420,42.8014,5.9826,13.2997,4.59912,2453.807,38.4854
2023-12-16T08:12:49,2420,42.8014,5.9826,13.3011,4.59951,2453.807,38.4878
2023-12-16T08:15:49,2420,42.8014,5.9826,13.2996,4.59918,2453.807,38.4861
2023-12-16T08:18:49,2420,42.8014,5.9826,13.3007,4.59946,2453.807,38.4876
2023-12-16T08:21:49,2420,42.8014,5.9826,13.3005,4.59925,2453.853,38.4858
2023-12-16T08:24:50,2420,42.8014,5.9826,13.2998,4.59915,2453.807,38.4856
2023-12-16T08:27:49,2420,42.8014,5.9826,13.2998,4.59911,2453.853,38.4852
2023-12-16T08:30:49,2420,42.8014,5.9826,13.2995,4.59911,2453.853,38.4855
2023-12-16T08:33:49,2420,42.8014,5.9826,13.3002,4.59916,2453.830,38.4853
2023-12-16T08:36:49,2420,42.8014,5.9826,13.2991,4.59943,2453.830,38.4890
2023-12-16T08:39:49,2420,42.8014,5.9826,13.3003,4.59928,2453.853,38.4863
2023-12-16T08:42:49,2420,42.8014,5.9826,13.3002,4.59925,2453.853,38.4861
2023-12-16T08:45:49,2420,42.8014,5.9826,13.3004,4.59917,2453.853,38.4851
2023-12-16T08:48:49,2420,42.8014,5.9826,13.2994,4.59915,2453.853,38.4859
2023-12-16T08:51:49,2420,42.8014,5.9826,13.3004,4.59946,2453.853,38.4879
2023-12-16T08:54:49,2420,42.8014,5.9826,13.3010,4.59937,2453.853,38.4865
2023-12-16T08:57:49,2420,42.8014,5.9826,13.3012,4.59940,2453.830,38.4865
2023-12-16T09:00:49,2420,42.8014,5.9826,13.3014,4.59972,2453.853,38.4894
2023-12-16T09:03:49,2420,42.8014,5.9826,13.3008,4.59927,2453.845,38.4858
2023-12-16T09:06:49,2420,42.8014,5.9826,13.2996,4.59944,2453.890,38.4885
2023-12-16T09:09:49,2420,42.8014,5.9826,13.3023,4.59924,2453.875,38.4840
2023-12-16T09:12:49,2420,42.8014,5.9826,13.3019,4.59977,2453.875,38.4893
2023-12-16T09:15:49,2420,42.8014,5.9826,13.2998,4.59924,2453.875,38.4864
2023-12-16T09:18:49,2420,42.8014,5.9826,13.3016,4.59928,2453.875,38.4849
2023-12-16T09:21:49,2420,42.8014,5.9826,13.3009,4.59933,2453.853,38.4862
2023-12-16T09:24:49,2420,42.8014,5.9826,13.3008,4.59996,2453.875,38.4922
2023-12-16T09:27:49,2420,42.8014,5.9826,13.3019,4.60070,2453.890,38.4982
2023-12-16T09:30:49,2420,42.8014,5.9826,13.3018,4.59935,2453.830,38.4855
2023-12-16T09:33:49,2420,42.8014,5.9826,13.3033,4.59925,2453.875,38.4831
2023-12-16T09:36:49,2420,42.8014,5.9826,13.3046,4.59948,2453.875,38.4839
2023-12-16T09:39:49,2420,42.8014,5.9826,13.3021,4.59947,2453.875,38.4863
2023-12-16T09:42:49,2420,42.8014,5.9826,13.3004,4.60007,2453.875,38.4936
2023-12-16T09:45:49,2420,42.8014,5.9826,13.2996,4.59932,2453.875,38.4874
2023-12-16T09:48:49,2420,42.8014,5.9826,13.3031,4.59935,2453.853,38.4842
2023-12-16T09:51:49,2420,42.8014,5.9826,13.3011,4.59923,2453.898,38.4850
2023-12-16T09:54:49,2420,42.8014,5.9826,13.3004,4.59933,2453.875,38.4867
2023-12-16T09:57:49,2420,42.8014,5.9826,13.2999,4.59936,2453.898,38.4874
2023-12-16T10:00:49,2420,42.8014,5.9826,13.3002,4.59983,2453.861,38.4916
2023-12-16T10:03:49,2420,42.8014,5.9826,13.3007,4.59935,2453.890,38.4866
2023-12-16T10:06:49,2420,42.8014,5.9826,13.3005,4.59940,2453.853,38.4872
2023-12-16T10:09:49,2420,42.8014,5.9826,13.3010,4.59935,2453.890,38.4863
2023-12-16T10:12:49,2420,42.8014,5.9826,13.3051,4.59954,2453.890,38.4839
2023-12-16T10:15:49,2420,42.8014,5.9826,13.3016,4.59972,2453.875,38.4892
2023-12-16T10:18:49,2420,42.8014,5.9826,13.3004,4.59931,2453.875,38.4865
2023-12-16T10:21:50,2420,42.8014,5.9826,13.3020,4.59923,2453.875,38.4841
2023-12-16T10:24:49,2420,42.8014,5.9826,13.3021,4.59919,2453.861,38.4836
2023-12-16T10:27:49,2420,42.8014,5.9826,13.3027,4.59940,2453.853,38.4850
2023-12-16T10:30:49,2420,42.8014,5.9826,13.3032,4.59967,2453.853,38.4871
2023-12-16T10:33:49,2420,42.8014,5.9826,13.3020,4.59937,2453.875,38.4854
2023-12-16T10:36:49,2420,42.8014,5.9826,13.2996,4.59929,2453.875,38.4871
2023-12-16T10:39:49,2420,42.8014,5.9826,13.3045,4.59962,2453.853,38.4853
2023-12-16T10:42:49,2420,42.8014,5.9826,13.3029,4.59938,2453.853,38.4847
2023-12-16T10:45:49,2420,42.8014,5.9826,13.3038,4.59991,2453.830,38.4887
2023-12-16T10:48:49,2420,42.8014,5.9826,13.3008,4.59936,2453.898,38.4865
2023-12-16T10:51:49,2420,42.8014,5.9826,13.3010,4.59934,2453.867,38.4861
2023-12-16T10:54:49,2420,42.8014,5.9826,13.3021,4.59945,2453.853,38.4861
2023-12-16T10:57:49,2420,42.8014,5.9826,13.3032,4.60000,2453.875,38.4902
2023-12-16T11:00:49,2420,42.8014,5.9826,13.3040,4.59936,2453.875,38.4834
2023-12-16T11:03:49,2420,42.8014,5.9826,13.3002,4.59950,2453.875,38.4884
2023-12-16T11:06:49,2420,42.8014,5.9826,13.3009,4.59981,2453.853,38.4907
2023-12-16T11:09:49,2420,42.8014,5.9826,13.3086,4.59948,2453.853,38.4799
2023-12-16T11:12:49,2420,42.8014,5.9826,13.3019,4.59933,2453.867,38.4851
2023-12-16T11:15:49,2420,42.8014,5.9826,13.2995,4.59946,2453.853,38.4888
2023-12-16T11:18:49,2420,42.8014,5.9826,13.3009,4.59943,2453.867,38.4871
2023-12-16T11:21:49,2420,42.8014,5.9826,13.3000,4.59931,2453.853,38.4869
2023-12-16T11:24:49,2420,42.8014,5.9826,13.3009,4.59932,2453.867,38.4861
2023-12-16T11:27:49,2420,42.8014,5.9826,13.3008,4.59920,2453.853,38.4851
2023-12-16T11:30:50,2420,42.8014,5.9826,13.3021,4.59928,2453.845,38.4845
2023-12-16T11:33:49,2420,42.8014,5.9826,13.3032,4.59934,2453.830,38.4840
2023-12-16T11:36:49,2420,42.8014,5.9826,13.3014,4.59931,2453.830,38.4855
2023-12-16T11:39:49,2420,42.8014,5.9826,13.3021,4.59951,2453.830,38.4867
2023-12-16T11:42:49,2420,42.8014,5.9826,13.3009,4.59937,2453.830,38.4866
2023-12-16T11:45:49,2420,42.8014,5.9826,13.3008,4.59920,2453.845,38.4851
2023-12-16T11:48:49,2420,42.8014,5.9826,13.3026,4.59993,2453.807,38.4902
2023-12-16T11:51:49,2420,42.8014,5.9826,13.3013,4.59945,2453.830,38.4869
2023-12-16T11:54:49,2420,42.8014,5.9826,13.3038,4.59576,2453.830,38.4496
2023-12-16T11:57:49,2420,42.8014,5.9826,13.2999,4.59923,2453.793,38.4862
2023-12-16T12:00:49,2420,42.8014,5.9826,13.3002,4.59929,2453.807,38.4865
2023-12-16T12:03:49,2420,42.8014,5.9826,13.3002,4.59929,2453.807,38.4865
2023-12-16T12:06:49,2420,42.8014,5.9826,13.2997,4.59940,2453.785,38.4881
2023-12-16T12:09:49,2420,42.8014,5.9826,13.3011,4.59927,2453.785,38.4855
2023-12-16T12:12:49,2420,42.8014,5.9826,13.3023,4.59939,2453.830,38.4853
2023-12-16T12:15:49,2420,42.8014,5.9826,13.2998,4.59929,2453.830,38.4869
2023-12-16T12:18:49,2420,42.8014,5.9826,13.3026,4.59947,2453.785,38.4859
2023-12-16T12:21:49,2420,42.8014,5.9826,13.3036,4.59933,2453.807,38.4835
2023-12-16T12:24:49,2420,42.8014,5.9826,13.3013,4.59943,2453.807,38.4867
2023-12-16T12:27:49,2420,42.8014,5.9826,13.3025,4.59923,2453.807,38.4837
2023-12-16T12:30:49,2420,42.8014,5.9826,13.2996,4.59941,2453.785,38.4882
2023-12-16T12:33:49,2420,42.8014,5.9826,13.3014,4.59927,2453.785,38.4851
2023-12-16T12:36:49,2420,42.8014,5.9826,13.3011,4.59963,2453.785,38.4888
2023-12-16T12:39:49,2420,42.8014,5.9826,13.3016,4.59928,2453.807,38.4850
2023-12-16T12:42:49,2420,42.8014,5.9826,13.3049,4.59977,2453.762,38.4864
2023-12-16T12:45:49,2420,42.8014,5.9826,13.3029,4.59956,2453.770,38.4864
2023-12-16T12:48:49,2420,42.8014,5.9826,13.3008,4.59971,2453.762,38.4898
2023-12-16T12:51:49,2420,42.8014,5.9826,13.3011,4.59931,2453.740,38.4859
2023-12-16T12:54:49,2420,42.8014,5.9826,13.3016,4.59943,2453.785,38.4864
2023-12-16T12:57:49,2420,42.8014,5.9826,13.3021,4.59928,2453.793,38.4846
2023-12-16T13:00:49,2420,42.8014,5.9826,13.3009,4.59946,2453.762,38.4874
2023-12-16T13:03:49,2420,42.8014,5.9826,13.3019,4.59937,2453.793,38.4856
2023-12-16T13:06:49,2420,42.8014,5.9826,13.3003,4.59928,2453.800,38.4863
2023-12-16T13:09:49,2420,42.8014,5.9826,13.3023,4.59925,2453.762,38.4841
2023-12-16T13:12:49,2420,42.8014,5.9826,13.3039,4.59967,2453.785,38.4865
2023-12-16T13:15:49,2420,42.8014,5.9826,13.3019,4.59931,2453.785,38.4851
2023-12-16T13:18:49,2420,42.8014,5.9826,13.3015,4.59933,2453.777,38.4857
2023-12-16T13:21:49,2420,42.8014,5.9826,13.3000,4.59927,2453.762,38.4866
2023-12-16T13:24:49,2420,42.8014,5.9826,13.3004,4.59923,2453.762,38.4857
2023-12-16T13:27:49,2420,42.8014,5.9826,13.3004,4.59950,2453.762,38.4883
2023-12-16T13:30:49,2420,42.8014,5.9826,13.3026,4.59921,2453.740,38.4834
2023-12-16T13:33:49,2420,42.8014,5.9826,13.3046,4.59965,2453.785,38.4855
2023-12-16T13:36:49,2420,42.8014,5.9826,13.3023,4.59936,2453.740,38.4851
2023-12-16T13:39:49,2420,42.8014,5.9826,13.2999,4.59917,2453.762,38.4857
2023-12-16T13:42:49,2420,42.8014,5.9826,13.3033,4.59937,2453.762,38.4842
2023-12-16T13:45:49,2420,42.8014,5.9826,13.3011,4.59928,2453.740,38.4856
2023-12-16T13:48:49,2420,42.8014,5.9826,13.3006,4.59946,2453.725,38.4878
2023-12-16T13:51:50,2420,42.8014,5.9826,13.3000,4.59923,2453.754,38.4862
2023-12-16T13:54:49,2420,42.8014,5.9826,13.3016,4.59934,2453.754,38.4857
2023-12-16T13:57:49,2420,42.8014,5.9826,13.3019,4.59948,2453.740,38.4867
2023-12-16T14:00:49,2420,42.8014,5.9826,13.3009,4.59952,2453.740,38.4881
2023-12-16T14:03:49,2420,42.8014,5.9826,13.3003,4.59929,2453.740,38.4864
2023-12-16T14:06:49,2420,42.8014,5.9826,13.3008,4.59917,2453.762,38.4848
2023-12-16T14:09:49,2420,42.8014,5.9826,13.3002,4.59921,2453.740,38.4858
2023-12-16T14:12:49,2420,42.8014,5.9826,13.3001,4.59918,2453.717,38.4856
2023-12-16T14:15:49,2420,42.8014,5.9826,13.3004,4.59941,2453.740,38.4875
2023-12-16T14:18:49,2420,42.8014,5.9826,13.3006,4.59919,2453.725,38.4852
2023-12-16T14:21:49,2420,42.8014,5.9826,13.3011,4.59924,2453.717,38.4851
2023-12-16T14:24:49,2420,42.8014,5.9826,13.3002,4.59920,2453.754,38.4857
2023-12-16T14:27:49,2420,42.8014,5.9826,13.3000,4.59924,2453.695,38.4863
2023-12-16T14:30:50,2420,42.8014,5.9826,13.3004,4.59920,2453.717,38.4855
2023-12-16T14:33:49,2420,42.8014,5.9826,13.2998,4.59919,2453.717,38.4860
2023-12-16T14:36:49,2420,42.8014,5.9826,13.2996,4.59917,2453.740,38.4860
2023-12-16T14:39:49,2420,42.8014,5.9826,13.2998,4.59920,2453.717,38.4861
2023-12-16T14:42:49,2420,42.8014,5.9826,13.3003,4.59917,2453.717,38.4853
2023-12-16T14:45:49,2420,42.8014,5.9826,13.3001,4.59922,2453.740,38.4859
2023-12-16T14:48:49,2420,42.8014,5.9826,13.3002,4.59925,2453.702,38.4861
2023-12-16T14:51:49,2420,42.8014,5.9826,13.2999,4.59937,2453.732,38.4876
2023-12-16T14:54:49,2420,42.8014,5.9826,13.3000,4.59938,2453.740,38.4875
2023-12-16T14:57:49,2420,42.8014,5.9826,13.3001,4.59926,2453.702,38.4863
2023-12-16T15:00:50,2420,42.8014,5.9826,13.3008,4.59943,2453.702,38.4872
2023-12-16T15:03:49,2420,42.8014,5.9826,13.3007,4.59923,2453.740,38.4855
2023-12-16T15:06:49,2420,42.8014,5.9826,13.3008,4.59934,2453.695,38.4865
2023-12-16T15:09:49,2420,42.8014,5.9826,13.3000,4.59930,2453.672,38.4869
2023-12-16T15:12:49,2420,42.8014,5.9826,13.3000,4.59918,2453.717,38.4857
2023-12-16T15:15:49,2420,42.8014,5.9826,13.3002,4.59922,2453.695,38.4859
2023-12-16T15:18:49,2420,42.8014,5.9826,13.3002,4.59942,2453.717,38.4877
2023-12-16T15:21:49,2420,42.8014,5.9826,13.3000,4.59920,2453.717,38.4859
2023-12-16T15:24:49,2420,42.8014,5.9826,13.3003,4.59940,2453.695,38.4874
2023-12-16T15:27:49,2420,42.8014,5.9826,13.2999,4.59926,2453.695,38.4866
2023-12-16T15:30:50,2420,42.8014,5.9826,13.3046,4.59958,2453.672,38.4849
2023-12-16T15:33:49,2420,42.8014,5.9826,13.3009,4.59929,2453.695,38.4859
2023-12-16T15:36:49,2420,42.8014,5.9826,13.3023,4.59924,2453.717,38.4840
2023-12-16T15:39:49,2420,42.8014,5.9826,13.2999,4.59928,2453.672,38.4868
2023-12-16T15:42:49,2420,42.8014,5.9826,13.3002,4.59926,2453.672,38.4862
2023-12-16T15:45:49,2420,42.8014,5.9826,13.3010,4.59940,2453.672,38.4868
2023-12-16T15:48:49,2420,42.8014,5.9826,13.3006,4.59961,2453.672,38.4892
2023-12-16T15:51:49,2420,42.8014,5.9826,13.3008,4.59926,2453.672,38.4857
2023-12-16T15:54:49,2420,42.8014,5.9826,13.3015,4.59933,2453.672,38.4857
2023-12-16T15:57:49,2420,42.8014,5.9826,13.3008,4.59931,2453.672,38.4861
2023-12-16T16:00:49,2420,42.8014,5.9826,13.3003,4.59945,2453.649,38.4879
2023-12-16T16:03:49,2420,42.8014,5.9826,13.3012,4.59928,2453.695,38.4854